EW1107 Weather Reports


Display with metric or nautical units.
time (UTC)temp
F
wind
direction
speed
MPH
gust
MPH
rain 1hr
in
rain 24hr
in
rain mn
in
humidity
%
barometer
mb
20191207171611 44 272 3.0 11.0 0.01 0.01 0.01 91 1008.3
20191207170121 44 246 7.0 15.0 0.01 0.01 0.01 91 1008.2
20191207164623 44 255 4.0 14.0 0.00 0.00 0.00 91 1008.2
20191207163043 44 252 4.0 12.0 0.00 0.00 0.00 91 1008.0
20191207161543 44 244 4.0 10.0 0.00 0.00 0.00 90 1007.9
20191207160104 44 198 5.0 13.0 0.00 0.00 0.00 90 1007.7
20191207154618 44 200 4.0 15.0 0.00 0.00 0.00 88 1007.5
20191207153108 45 239 5.0 17.0 0.00 0.00 0.00 87 1007.3
20191207151611 45 269 6.0 17.0 0.00 0.00 0.00 86 1007.1
20191207150125 45 283 6.0 17.0 0.00 0.00 0.00 87 1006.9
20191207144555 45 237 6.0 14.0 0.00 0.00 0.00 87 1006.7
20191207143044 45 233 7.0 20.0 0.00 0.00 0.00 88 1006.6
20191207141554 44 234 4.0 12.0 0.00 0.00 0.00 89 1006.3
20191207140135 44 277 6.0 13.0 0.00 0.00 0.00 90 1006.3
20191207134549 43 279 6.0 13.0 0.00 0.00 0.00 91 1006.2
20191207133023 42 215 3.0 10.0 0.00 0.00 0.00 91 1006.0
20191207131528 42 219 5.0 12.0 0.00 0.00 0.00 90 1006.0
20191207130041 42 225 6.0 14.0 0.00 0.00 0.00 90 1005.7
20191207124536 42 225 7.0 14.0 0.00 0.00 0.00 90 1005.7
20191207123020 42 249 8.0 16.0 0.00 0.00 0.00 91 1005.7
20191207120025 41 244 6.0 20.0 0.00 0.00 0.00 92 1005.6
20191207114512 40 252 5.0 15.0 0.00 0.00 0.00 93 1005.7
20191207113030 40 221 4.0 12.0 0.00 0.00 0.00 93 1005.7
20191207111504 39 217 8.0 17.0 0.00 0.00 0.00 93 1005.8
20191207110004 39 238 8.0 19.0 0.00 0.00 0.00 93 1005.8
20191207104502 39 211 6.0 13.0 0.00 0.00 0.00 91 1005.9
20191207101637 38 194 7.0 13.0 0.00 0.00 0.00 91 1006.1
20191207100422 38 205 6.0 15.0 0.00 0.00 0.00 91 1006.2
20191207094639 37 184 6.0 16.0 0.00 0.00 0.00 91 1006.3
20191207093116 37 194 6.0 15.0 0.00 0.00 0.00 92 1006.4
20191207091653 36 219 6.0 12.0 0.00 0.00 0.00 93 1006.7
20191207090141 36 178 7.0 13.0 0.00 0.00 0.00 93 1006.7
20191207084631 35 200 6.0 14.0 0.00 0.00 0.00 93 1006.5
20191207083154 35 209 7.0 14.0 0.00 0.00 0.00 92 1006.5
20191207081621 35 186 8.0 15.0 0.00 0.00 0.00 91 1006.5
20191207080141 35 232 7.0 13.0 0.00 0.00 0.00 91 1006.5
20191207074601 35 213 6.0 14.0 0.00 0.00 0.00 90 1006.5
20191207073111 35 234 4.0 17.0 0.00 0.00 0.00 89 1006.6
20191207071625 35 205 8.0 14.0 0.00 0.00 0.00 87 1006.6
20191207070136 36 235 6.0 19.0 0.00 0.00 0.00 83 1006.7
20191207064621 37 202 8.0 18.0 0.00 0.00 0.00 80 1006.4
20191207063110 37 234 4.0 14.0 0.00 0.00 0.00 79 1006.2
20191207061543 37 209 6.0 15.0 0.00 0.00 0.00 78 1006.2
20191207060125 36 225 7.0 14.0 0.00 0.00 0.00 79 1006.3
20191207054554 36 200 6.0 14.0 0.00 0.00 0.00 77 1006.4
20191207053101 36 196 5.0 15.0 0.00 0.00 0.00 77 1006.3
20191207051553 36 212 7.0 12.0 0.00 0.00 0.00 77 1006.4
20191207050102 35 173 5.0 12.0 0.00 0.00 0.00 78 1006.4
20191207044549 35 188 4.0 10.0 0.00 0.00 0.00 78 1006.4
20191207043034 35 195 9.0 13.0 0.00 0.00 0.00 78 1006.5
20191207041628 35 170 6.0 12.0 0.00 0.00 0.00 78 1006.5
20191207040034 35 176 5.0 14.0 0.00 0.00 0.00 78 1006.5
20191207034555 35 161 6.0 17.0 0.00 0.00 0.00 79 1006.6
20191207033035 35 188 5.0 13.0 0.00 0.00 0.00 79 1006.9
20191207031550 35 186 4.0 11.0 0.00 0.00 0.00 80 1007.0
20191207030023 34 178 4.0 12.0 0.00 0.00 0.00 81 1007.2
20191207024524 34 176 4.0 12.0 0.00 0.00 0.00 81 1007.5
20191207023010 34 194 4.0 12.0 0.00 0.00 0.00 82 1007.8
20191207021510 34 190 4.0 13.0 0.00 0.00 0.00 82 1007.7
20191207020005 33 211 3.0 10.0 0.00 0.00 0.00 82 1008.0
20191207013134 32 171 5.0 14.0 0.00 0.00 0.00 82 1008.3
20191207011639 32 180 3.0 12.0 0.00 0.00 0.00 82 1008.7
20191207010159 32 168 7.0 12.0 0.00 0.00 0.00 82 1008.9
20191207004630 32 184 4.0 11.0 0.00 0.00 0.00 82 1009.0
20191207003107 32 221 5.0 10.0 0.00 0.00 0.00 82 1009.1
20191207001714 31 227 5.0 12.0 0.00 0.00 0.00 82 1009.2
20191207000134 31 174 5.0 11.0 0.00 0.00 0.00 81 1009.4
20191206234628 31 189 5.0 12.0 0.00 0.00 0.00 81 1009.6
20191206233105 31 194 6.0 11.0 0.00 0.00 0.00 81 1009.6
20191206231712 31 206 7.0 11.0 0.00 0.00 0.00 80 1009.6
20191206230131 32 229 6.0 10.0 0.00 0.00 0.00 79 1009.9
20191206224625 32 188 4.0 9.0 0.00 0.00 0.00 79 1010.0
20191206223114 32 185 5.0 10.0 0.00 0.00 0.00 79 1010.3
20191206221602 32 188 5.0 11.0 0.00 0.00 0.00 80 1010.5
20191206220116 32 200 6.0 10.0 0.00 0.00 0.00 80 1010.5
20191206214619 31 172 5.0 10.0 0.00 0.00 0.00 81 1010.7
20191206213052 31 175 4.0 10.0 0.00 0.00 0.00 81 1010.8
20191206211605 31 208 5.0 10.0 0.00 0.00 0.00 81 1010.9
20191206210044 31 176 4.0 11.0 0.00 0.00 0.00 81 1011.0
20191206204538 31 189 3.0 9.0 0.00 0.00 0.00 81 1011.2
20191206203147 31 184 2.0 10.0 0.00 0.00 0.00 81 1011.3
20191206201534 31 180 6.0 10.0 0.00 0.00 0.00 81 1011.4
20191206200045 31 213 5.0 11.0 0.00 0.00 0.00 81 1011.5
20191206194555 31 222 3.0 11.0 0.00 0.00 0.00 81 1011.5
20191206193038 31 201 5.0 9.0 0.00 0.00 0.00 81 1011.6
20191206191539 31 201 5.0 11.0 0.00 0.00 0.00 81 1011.7
20191206190120 31 211 4.0 9.0 0.00 0.00 0.00 81 1011.7
20191206184605 31 179 5.0 10.0 0.00 0.00 0.00 80 1011.9
20191206183048 32 194 6.0 11.0 0.00 0.00 0.00 80 1012.0
20191206181530 32 200 7.0 12.0 0.00 0.00 0.00 80 1011.9
20191206180053 32 179 6.0 15.0 0.00 0.00 0.00 80 1012.0
20191206174518 32 205 6.0 12.0 0.00 0.00 0.00 80 1012.2
20191206173017 32 204 7.0 10.0 0.00 0.00 0.00 80 1012.0